Regional Weather Roundup
Issued by NWS

Home | Current Version | Previous Version | Text Only | Print | Product List | Glossary On
Versions: 1 2 3 4 5 6 7 8 9 10 11 12 13 14 15 16 17 18 19 20 21 22 23 24 25 26 27
000
ASUS45 KSLC 181410
RWRUT

UTAH REGIONAL WEATHER ROUNDUP
NATIONAL WEATHER SERVICE SALT LAKE CITY UT
700 AM MST SAT NOV 18 2017

UTZ001>011-023>025-181500-

NORTHERN UTAH

CITY           SKY/WX    TMP DP  RH WIND       PRES   REMARKS
BRIGHAM CITY   CLEAR     27  22  83 N3        30.45R
HILL AFB       MOCLDY    26  18  71 E12       30.42R WCI  15
LOGAN          PTCLDY    26  21  81 W3        30.43R
OGDEN          PTCLDY    26  19  74 S9        30.43R WCI  17
SALT LAKE CITY PTCLDY    31  21  66 SE8       30.44R WCI  23
TOOELE VALLEY  CLEAR     27  21  80 S7        30.45R WCI  19
WENDOVER       PTCLDY    22  17  81 NE8       30.45R WCI  12
HEBER CITY       N/A     18  12  79 CALM      30.42R
WEST JORDAN    CLEAR     26  21  81 SW5       30.45R WCI  21

$$

UTZ011>015-024>027-181500-

CENTRAL/NORTHEAST UTAH

CITY           SKY/WX    TMP DP  RH WIND       PRES   REMARKS
PROVO AIRPORT  PTCLDY    25  21  85 CALM      30.47R
MOAB/CANYONLAN PTCLDY    21   9  59 W6        30.40R WCI  13
DELTA          MOCLDY    18  14  86 CALM      30.44R
PRICE          PTCLDY    22  13  68 CALM      30.37R
ROOSEVELT      CLOUDY    18  10  73 CALM      30.41R
VERNAL         CLOUDY    17   9  70 NW3       30.40R

$$

UTZ013>016-019>022-027-181500-

SOUTHERN UTAH

CITY           SKY/WX    TMP DP  RH WIND       PRES   REMARKS
BRYCE CANYON   PTCLDY     6   2  83 SW5       30.38R WCI  -3
CEDAR CITY     PTCLDY    18  15  88 CALM      30.36F
MILFORD        PTCLDY    17  14  88 VRB3      30.41R
ST GEORGE      MOSUNNY   36  13  38 E6        30.39R WCI  31
HANKSVILLE     PTCLDY    21  10  63 CALM      30.44R
BLANDING         N/A     20   7  57 CALM      30.41R

$$

REGIONAL REPORTS     COLORADO/ARIZONA

CITY           SKY/WX    TMP DP  RH WIND       PRES   REMARKS
CRAIG, CO      CLOUDY     8   3  80 CALM      30.39R
GRAND JUNCTION CLOUDY    22  16  78 E6        30.41R WCI  14
RIFLE, CO      CLOUDY    16  12  84 S3        30.43R
MONTROSE, CO   CLOUDY    21  15  78 SE9       30.43R WCI  11
CORTEZ, CO     CLOUDY    26  12  55 NW8       30.31R WCI  18
COLORADO CITY    N/A     28  12  50 CALM      30.37R
PAGE, AZ       PTCLDY    35  14  42 W5        30.38R WCI  31
GRAND CANYON   PTCLDY    29  12  49 CALM      30.33R
KINGMAN, AZ    CLEAR     37  19  48 E9        30.28R WCI  30
FLAGSTAFF, AZ  PTCLDY    27  14  58 NE12      30.32R WCI  17

$$

REGIONAL REPORTS    NEVADA/IDAHO/WYOMING

CITY           SKY/WX    TMP DP  RH WIND       PRES   REMARKS
LAS VEGAS, NV  CLEAR     48  16  27 N10       30.33R
ELY, NY        PTCLDY     4   1  88 S9        30.38R WCI -10
ELKO, NV       PTCLDY    19  14  81 E7        30.39S WCI  10
POCATELLO, ID  PTCLDY    26  19  74 SW9       30.40R WCI  17
BURLEY, ID     CLEAR     27  19  72 SW12      30.38S WCI  17
FORT BRIDGER,    N/A     13  11  90 SW14      30.37R WCI  -2
EVANSTON, WY   CLOUDY    11   9  92 SW9       30.35R WCI  -2
ROCK SPRINGS,  CLOUDY    16  11  80 W18       30.31R WCI   0

$$




USA.gov is the U.S. government's official web portal to all federal, state and local government web resources and services.